Flag for U.S.A. Weather past 2 weeks in Warminster Township, Pennsylvania, U.S.A.

Now
46 °F

Clear.


Feels Like: 43 °F
Forecast: 37 / 65 °F
Wind: 6 mph from North

Location: Doylestown Airport


UV Index: 3 (Moderate)

Visibility: 10 mi


Pressure: 30.04 "Hg

Humidity: 26%

Dew point: 13 °F

Location of Warminster TownshipLocation

Historic Weather in Warminster Township

°F

Warminster Township temperature yesterday

Maximum temperature yesterday: 60 °F (at 3:54 PM)
Minimum temperature yesterday: 38 °F (at 5:54 AM)
Average temperature yesterday: 49 °F

Past Weeks' High & Low Weather Summary

 TemperatureHumidityPressure
High78 °F (Apr 13, 2:54 PM)100% (Apr 15, 10:54 AM)30.71 "Hg (Apr 15, 10:54 AM)
Low27 °F (Apr 16, 5:54 AM)16% (Apr 24, 4:54 PM)29.51 "Hg (Apr 15, 1:54 PM)
Average52 °F56%30.10 "Hg
* Reported Apr 9 10:54 PM — Apr 24 10:54 PM, Warminster Township, Weather by CustomWeather, © 2014

Note: Actual official high and low records may vary slightly from our data, if they occured in-between our weather recording intervals... More about our weather records

Advertising

Historic Weather Conditions — Data for Previous 24 hours

 ConditionsComfort  
Time TempWeatherWind HumidityBarometerVisibility
10:54 PM
Apr 24
47 °FClear.7 mph26%30.03 "Hg10 mi
9:54 PM50 °FClear.6 mph22%30.02 "Hg10 mi
8:54 PM52 °FClear.6 mph21%30.01 "Hg10 mi
7:54 PM54 °FSunny.13 mph19%29.99 "Hg10 mi
6:54 PM57 °FSunny.13 mph17%29.97 "Hg10 mi
5:54 PM59 °FSunny.16 mph17%29.95 "Hg10 mi
4:54 PM59 °FSunny.17 mph16%29.94 "Hg10 mi
3:54 PM60 °FSunny.13 mph19%29.94 "Hg10 mi
2:54 PM59 °FSunny.15 mph19%29.95 "Hg10 mi
1:54 PM57 °FSunny.12 mph22%29.96 "Hg10 mi
12:54 PM55 °FSunny.13 mph25%29.98 "Hg10 mi
11:54 AM53 °FSunny.13 mph26%30.01 "Hg10 mi
10:54 AM50 °FSunny.18 mph27%30.01 "Hg10 mi
9:54 AM46 °FSunny.15 mph33%30.02 "Hg10 mi
8:54 AM44 °FSunny.9 mph37%30.01 "Hg10 mi
7:54 AM41 °FSunny.9 mph39%30.00 "Hg10 mi
6:54 AM38 °FClear.13 mph45%29.98 "Hg10 mi
5:54 AM38 °FClear.9 mph46%29.95 "Hg10 mi
4:54 AM40 °FClear.9 mph47%29.92 "Hg10 mi
3:54 AM40 °FClear.8 mph53%29.90 "Hg10 mi
2:54 AM41 °FClear.12 mph55%29.89 "Hg10 mi
1:54 AM41 °FClear.8 mph55%29.90 "Hg10 mi
12:54 AM41 °FClear.10 mph53%29.90 "Hg10 mi
Weather by CustomWeather, © 2014

See weather overview